User: anonymous   Login
Location: Cahoon Acres
(40.8736°N, 111.8994°W)
Time: 22:23:40
(UTC+00:00)
Language:

Courier 1B - Orbit

View from above orbital plane
View from above orbital plane
View from above satellite
View from above satellite

Ground track
Ground track

The orbit data is extracted from the following two-line orbital elements,

1    58U 60013A   20145.47469950 +.00000113 +00000-0 +37898-4 0  9993
2    58 028.3270 216.2811 0164926 230.7709 127.8091 13.46321851935384
Epoch (UTC): 24 May 2020 11:23:34
Eccentricity: 0.0164926
inclination: 28.3270°
perigee height: 963 km
apogee height: 1209 km
right ascension of ascending node: 216.2811°
argument of perigee: 230.7709°
revolutions per day: 13.46321851
mean anomaly at epoch: 127.8091°
orbit number at epoch: 93538

The dashed part of the orbit path shows where the satellite is in the earth's shadow,  

DLR